Retour au catalogue

STARLINK-31441

ActifCommunicationsVLEO
NORAD 60091·PAYLOAD·🇺🇸 United States

Lancé Jun 23, 2024 depuis Cape Canaveral Space Force Station

Loading…

Prochains Passages (prochaines 24 heures)

TLE

FraisSource: CelesTrak SupGP

Époque: Sep 15, 2026, 02:38 UTC

1 60091C 24117A   26258.11020833 -.00039439  00000+0 -11651-2 0  2585
2 60091  53.1578 234.9680 0001439  92.3688 148.1204 15.34413605    15

Suivez STARLINK-31441 en temps réel avec AllMySat

Download on the App Store